This is the latest recevied weather packets stored in our database for station/object N6GPM. If no packets are shown the sender has not sent any weather packets the latest 10 day(s).
| Time | Temp. | Humidity | Pressure | Rain* | Wind** | Luminosity | Snow |
|---|---|---|---|---|---|---|---|
| 1777730326 | 12.22° C | 94% | 1018.3 hPa | 0 mm | - | 33 W/m² | - |
| 1777730023 | 12.22° C | 94% | 1018.1 hPa | 0 mm | - | 34 W/m² | - |
| 1777729719 | 12.22° C | 94% | 1017.9 hPa | 0 mm | - | 31 W/m² | - |
| 1777729416 | 12.22° C | 94% | 1017.9 hPa | 0 mm | - | 28 W/m² | - |
| 1777729113 | 12.22° C | 93% | 1017.8 hPa | 0 mm | - | 26 W/m² | - |
| 1777728809 | 12.22° C | 93% | 1017.9 hPa | 0 mm | - | 21 W/m² | - |
| 1777728507 | 12.22° C | 93% | 1017.8 hPa | 0 mm | - | 17 W/m² | - |
| 1777728204 | 12.22° C | 93% | 1017.4 hPa | 0 mm | - | 14 W/m² | - |
| 1777727901 | 12.78° C | 93% | 1017.5 hPa | 0 mm | - | 10 W/m² | - |
| 1777727598 | 12.78° C | 93% | 1017.4 hPa | 0 mm | - | 8 W/m² | - |
| 1777727295 | 12.78° C | 92% | 1017.2 hPa | 0 mm | - | 5 W/m² | - |
| 1777726992 | 12.78° C | 92% | 1017.2 hPa | 0 mm | - | 3 W/m² | - |
| 1777726689 | 12.78° C | 92% | 1017 hPa | 0 mm | - | 1 W/m² | - |
| 1777726386 | 12.78° C | 92% | 1017 hPa | 0 mm | - | 0 W/m² | - |
| 1777726083 | 12.78° C | 91% | 1016.9 hPa | 0 mm | - | 0 W/m² | - |
| 1777725780 | 12.78° C | 91% | 1016.9 hPa | 0 mm | - | 0 W/m² | - |
| 1777725478 | 12.78° C | 91% | 1016.9 hPa | 0 mm | - | 0 W/m² | - |
| 1777725175 | 13.33° C | 91% | 1016.9 hPa | 0 mm | - | 0 W/m² | - |
| 1777724871 | 13.33° C | 90% | 1016.9 hPa | 0 mm | - | 0 W/m² | - |
| 1777724568 | 13.33° C | 90% | 1016.7 hPa | 0 mm | - | 0 W/m² | - |
| 1777724266 | 13.33° C | 90% | 1016.8 hPa | 0 mm | - | 0 W/m² | - |
| 1777723964 | 13.33° C | 90% | 1016.6 hPa | 0 mm | - | 0 W/m² | - |
| 1777723660 | 13.33° C | 90% | 1016.7 hPa | 0 mm | - | 0 W/m² | - |
| 1777723357 | 13.33° C | 89% | 1016.6 hPa | 0 mm | - | 0 W/m² | - |
| 1777723055 | 13.33° C | 89% | 1016.7 hPa | 0 mm | - | 0 W/m² | - |
* Rain latest hour (hover to see other rain measurements)
** Current wind speed in m/s (hover to see current wind gust speed)